Flag for U.S.A. Weather past 2 weeks in Coeur d'Alene, Idaho, U.S.A.

Now
54 °F

Clear.


Feels Like: 52 °F
Forecast: 54 / 81 °F
Wind: 6 mph from Northeast

Location: Coeur d'Alene Weather Reporting System

Current Time: Sep 22, 2014 at 5:37:52 AM

Latest Report: Sep 22, 2014 at 4:55 AM


Visibility: 10 mi

Pressure: 29.92 "Hg

Humidity: 77%

Dew point: 46 °F

Location of Coeur d'AleneLocation

Historic Weather in Coeur d'Alene — Graph

°F

Coeur d'Alene temperature yesterday

Maximum temperature yesterday: 88 °F (at 2:55 PM)
Minimum temperature yesterday: 55 °F (at 11:55 PM)
Average temperature yesterday: 69 °F

Past Weeks' High & Low Weather Summary

 TemperatureHumidityPressure
High88 °F (Sep 21, 2:55 PM)100% (Sep 15, 5:55 AM)30.47 "Hg (Sep 15, 5:55 AM)
Low36 °F (Sep 12, 5:55 AM)11% (Sep 7, 4:15 AM)29.65 "Hg (Sep 18, 1:55 AM)
Average62 °F46%29.99 "Hg
* Reported Sep 7 4:15 AM — Sep 22 4:35 AM, Coeur d'Alene, Weather by CustomWeather, © 2014

Note: Actual official high and low records may vary slightly from our data, if they occured in-between our weather recording intervals... More about our weather records

Advertising

Coeur d'Alene weather history for previous 24 hours

 ConditionsComfort  
Time TempWeatherWind HumidityBarometerVisibility
4:35 AM
Sep 22
55 °FClear.5 mph77%29.92 "Hg10 mi
4:15 AM55 °FClear.5 mph77%29.92 "Hg10 mi
3:55 AM57 °FClear.6 mph72%29.92 "Hg10 mi
3:35 AM57 °FClear.3 mph72%29.92 "Hg10 mi
3:15 AM55 °FClear.6 mph77%29.92 "Hg10 mi
2:55 AM55 °FClear.6 mph67%29.91 "Hg10 mi
2:35 AM55 °FClear.5 mph77%29.91 "Hg10 mi
2:15 AM57 °FClear.No wind72%29.92 "Hg10 mi
1:55 AM57 °FClear.3 mph67%29.92 "Hg10 mi
1:35 AM55 °FClear.3 mph67%29.91 "Hg10 mi
1:15 AM57 °FClear.No wind63%29.91 "Hg10 mi
12:55 AM55 °FClear.5 mph67%29.91 "Hg10 mi
12:35 AM55 °FClear.5 mph67%29.91 "Hg10 mi
12:15 AM55 °FClear.3 mph67%29.90 "Hg10 mi
11:55 PM
Sep 21
55 °FClear.5 mph72%29.90 "Hg10 mi
11:35 PM59 °FClear.3 mph63%29.91 "Hg10 mi
10:55 PM57 °FClear.5 mph67%29.90 "Hg10 mi
10:35 PM59 °FClear.6 mph59%29.90 "Hg10 mi
10:15 PM61 °FClear.3 mph59%29.90 "Hg10 mi
9:55 PM63 °FClear.No wind64%29.91 "Hg10 mi
9:35 PM61 °FClear.No wind59%29.90 "Hg10 mi
9:15 PM63 °FClear.3 mph56%29.90 "Hg10 mi
8:55 PM64 °FClear.7 mph52%29.90 "Hg10 mi
8:35 PM68 °FClear.3 mph43%29.90 "Hg10 mi
8:15 PM70 °FClear.5 mph43%29.90 "Hg10 mi
7:55 PM70 °FClear.6 mph40%29.90 "Hg10 mi
7:35 PM72 °FSunny.5 mph38%29.89 "Hg10 mi
7:15 PM72 °FSunny.5 mph38%29.89 "Hg10 mi
6:55 PM73 °FSunny.6 mph36%29.89 "Hg10 mi
6:35 PM79 °FSunny.5 mph32%29.89 "Hg10 mi
6:15 PM82 °FSunny.5 mph28%29.89 "Hg10 mi
5:55 PM84 °FSunny.5 mph27%29.88 "Hg10 mi
5:15 PM86 °FSunny.7 mph22%29.89 "Hg10 mi
4:55 PM88 °FSunny.5 mph22%29.89 "Hg10 mi
4:35 PM88 °FSunny.No wind22%29.89 "Hg10 mi
3:55 PM88 °FSunny.7 mph22%29.90 "Hg10 mi
3:35 PM88 °FSunny.8 mph21%29.91 "Hg10 mi
3:15 PM88 °FSunny.No wind21%29.91 "Hg10 mi
2:55 PM88 °FSunny.6 mph22%29.92 "Hg10 mi
2:35 PM86 °FSunny.6 mph24%29.93 "Hg10 mi
2:15 PM84 °FSunny.7 mph25%29.94 "Hg10 mi
1:55 PM86 °FSunny.7 mph25%29.95 "Hg10 mi
1:35 PM84 °FSunny.5 mph27%29.95 "Hg10 mi
1:15 PM82 °FSunny.8 mph28%29.96 "Hg10 mi
12:55 PM82 °FSunny.9 mph28%29.97 "Hg10 mi
12:35 PM81 °FSunny.10 mph30%29.98 "Hg10 mi
12:15 PM79 °FSunny.12 mph32%29.99 "Hg10 mi
11:55 AM79 °FSunny.12 mph32%30.00 "Hg10 mi
11:35 AM75 °FSunny.15 mph36%30.01 "Hg10 mi
10:55 AM73 °FSunny.14 mph41%30.02 "Hg10 mi
10:35 AM72 °FSunny.14 mph41%30.02 "Hg10 mi
10:15 AM72 °FSunny.14 mph41%30.03 "Hg10 mi
9:55 AM68 °FSunny.15 mph46%30.03 "Hg10 mi
9:35 AM66 °FSunny.15 mph49%30.04 "Hg10 mi
9:15 AM64 °FSunny.16 mph52%30.03 "Hg10 mi
8:55 AM63 °FSunny.16 mph56%30.03 "Hg10 mi
8:35 AM63 °FSunny.18 mph56%30.03 "Hg10 mi
8:15 AM63 °FSunny.14 mph56%30.04 "Hg10 mi
7:55 AM61 °FSunny.16 mph59%30.04 "Hg10 mi
7:35 AM61 °FSunny.13 mph55%30.04 "Hg10 mi
7:15 AM59 °FClear.9 mph59%30.04 "Hg10 mi
6:55 AM59 °FClear.16 mph59%30.04 "Hg10 mi
6:35 AM57 °FClear.16 mph63%30.03 "Hg10 mi
6:15 AM59 °FClear.15 mph59%30.04 "Hg10 mi
5:55 AM59 °FClear.15 mph59%30.03 "Hg10 mi
5:35 AM59 °FClear.14 mph59%30.03 "Hg10 mi
Weather by CustomWeather, © 2014

See weather overviewHow to use our weather pages